Torna al catalogo

ARIANE 3 DEB

AttivoGTO
NORAD 48347·DEBRIS·🇫🇷 France

Lanciato Aug 4, 1984 da Guiana Space Centre

Loading…

TLE

ObsoletoSource: Space-Track

Epoca: Sep 10, 2026, 03:39 UTC

1 48347U 84081G   26253.15217338 -.00000405  00000-0  00000+0 0  9994
2 48347   6.2337 335.4252 7089054  54.9814 352.2008  2.08063302 97412

Traccia ARIANE 3 DEB in tempo reale con AllMySat

Download on the App Store